Find Starlink 30240

NORAD ID: 57404 Int'l Des: 2023-102 Owner: SPXS Country: US Constellation: starlink operational
LEOCIRCULAR

Live-Position

3D-Globus wird geladen...

Über Starlink 30240

Beschreibung wird geladen...

Nächste Überflüge

Passes for default location (London). Set your location on the main map for personalized predictions.

Höhenverlauf

Loading altitude history...

Zweizeiliger Elementsatz

1 57404U 23102A 26123.57492250 -.00000699 00000-0 -15861-4 0 9997
2 57404 43.0023 298.6405 0001305 265.7754 94.2948 15.27580734154630
Epoch: 3. Mai 2026 • Age: 17 hours

Aktueller Status

Höhe 484.8 km
Geschwindigkeit 7.63 km/s
Subsatellitenpunkt 32.70°N, 6.23°E
Startdatum 19. Juli 2023
Alter 2.7 years
Typ internet

Technische Details

Klassifizierung Payload
Masse 730.00 kg
Trockenmasse 700.00 kg
Gesamtmasse 730.00 kg
Länge 0.30 m
Durchmesser 4.10 m
Spannweite 29.00 m
Form Box + pan
Hersteller SPXS
Bus-Typ Starlink V2M
Phasenstatus In Orbit
Besitzer/Staat SPXS/US

Most Searched